Fort Rucker / Ozark, AL

6:47 PM CDT on July 21, 2017 (GMT -0500)
Fort Rucker / Ozark

Weather History for KHEY - May, 2013

Change the Weather History Date:

Friday, May 10, 2013

  Actual Average (KOZR) Record (KOZR)
Temperature  
Mean Temperature 70 °F -  
Max Temperature 80 °F 81 °F 93 °F (2011)
Min Temperature 59 °F 58 °F 55 °F (2004)
Cooling Degree Days 4    
Growing Degree Days 20 (Base 50)    
Moisture  
Dew Point 61 °F    
Average Humidity 81    
Maximum Humidity 100    
Minimum Humidity 47    
Precipitation  
Precipitation 0.00 in - - ()
Sea Level Pressure  
Sea Level Pressure 29.82 in    
Wind  
Wind Speed 2 mph (SSW)    
Max Wind Speed 8 mph    
Max Gust Speed 21 mph    
Visibility 7 miles    
Events Fog    
Averages and records for this station are not official NWS values.
T = Trace of Precipitation, MM = Missing Value Source: NWS Daily Summary

Daily Weather History Graph

Daily Weather History Graph

Search for Another Location

Airport or City:

Trip Planner

Search our weather history database for the weather conditions in past years. The results will help you decide how hot, cold, wet, or windy it might be!

Date:

Astronomy

May. 10, 2013 Rise Set
Actual Time 5:49 AM CDT 7:28 PM CDT
Civil Twilight 5:23 AM CDT 7:54 PM CDT
Nautical Twilight 4:51 AM CDT 8:26 PM CDT
Astronomical Twilight 4:18 AM CDT 8:59 PM CDT
Moon 6:14 AM CDT (5/10) 8:15 PM CDT (5/10)
Length of Visible Light 14h 31m
Length of Day
13h 38m
New Moon, 0% of the Moon is Illuminated
May 10
New Moon
May 17
First Quarter
May 24
Full
May 31
Last Quarter
Jun 8
New

Hourly Weather History & Observations

Time (CDT) Temp. Heat Index Dew Point Humidity Pressure Visibility Wind Dir Wind Speed Gust Speed Precip Events Conditions
12:53 AM 64.0 °F - 60.1 °F 87% 29.77 in 10.0 mi Calm Calm - N/A   Clear
1:53 AM 62.1 °F - 60.1 °F 93% 29.75 in 10.0 mi Calm Calm - N/A   Clear
2:53 AM 62.1 °F - 59.0 °F 90% 29.73 in 8.0 mi Calm Calm - N/A   Clear
3:53 AM 60.1 °F - 57.9 °F 93% 29.71 in 10.0 mi Calm Calm - N/A   Clear
4:53 AM 61.0 °F - 59.0 °F 93% 29.69 in 6.0 mi Calm Calm - N/A   Clear
5:53 AM 59.0 °F - 57.9 °F 96% 29.73 in 4.0 mi West 3.5 mph - N/A   Clear
6:09 AM 60.8 °F - 59.0 °F 94% 30.08 in 2.5 mi Calm Calm - N/A   Clear
6:16 AM 60.8 °F - 60.8 °F 100% 30.08 in 3.0 mi Calm Calm - N/A   Partly Cloudy
6:36 AM 60.8 °F - 60.8 °F 100% 30.07 in 5.0 mi East 3.5 mph - N/A   Mostly Cloudy
6:53 AM 61.0 °F - 59.0 °F 93% 29.73 in 2.0 mi ESE 4.6 mph - N/A   Overcast
6:59 AM 60.8 °F - 60.8 °F 100% 30.05 in 0.8 mi East 4.6 mph - N/A   Overcast
7:33 AM 62.6 °F - 62.6 °F 100% 30.06 in 1.8 mi Calm Calm - N/A   Overcast
7:43 AM 62.6 °F - 62.6 °F 100% 30.07 in 2.0 mi Calm Calm - N/A   Overcast
7:53 AM 63.0 °F - 63.0 °F 100% 29.75 in 0.5 mi Calm Calm - N/A Fog Fog
8:07 AM 64.4 °F - 64.4 °F 100% 30.10 in 2.0 mi WSW 3.5 mph - N/A   Overcast
8:16 AM 66.2 °F - 64.4 °F 94% 30.10 in 5.0 mi WSW 3.5 mph - N/A   Mostly Cloudy
8:33 AM 68.0 °F - 64.4 °F 88% 30.10 in 10.0 mi Variable 3.5 mph - N/A   Scattered Clouds
8:53 AM 70.0 °F - 64.9 °F 84% 29.77 in 10.0 mi SSW 3.5 mph - N/A   Clear
9:53 AM 72.0 °F - 64.9 °F 78% 29.80 in 10.0 mi Calm Calm - N/A   Mostly Cloudy
10:14 AM 73.4 °F - 64.4 °F 73% 30.14 in 10.0 mi Calm Calm - N/A   Scattered Clouds
10:53 AM 73.9 °F - 63.0 °F 68% 29.80 in 10.0 mi South 3.5 mph - N/A   Partly Cloudy
11:53 AM 75.0 °F - 63.0 °F 66% 29.79 in 10.0 mi SSW 6.9 mph - N/A   Scattered Clouds
12:53 PM 77.0 °F - 63.0 °F 62% 29.77 in 10.0 mi Variable 6.9 mph - N/A   Partly Cloudy
1:53 PM 78.1 °F - 62.1 °F 58% 29.71 in 10.0 mi SW 8.1 mph - N/A   Partly Cloudy
2:53 PM 80.1 °F 81.1 °F 61.0 °F 52% 29.67 in 10.0 mi South 8.1 mph 20.7 mph N/A   Clear
3:53 PM 80.1 °F 80.7 °F 59.0 °F 48% 29.67 in 10.0 mi SSW 6.9 mph - N/A   Clear
4:53 PM 80.1 °F 80.6 °F 57.9 °F 47% 29.65 in 10.0 mi South 8.1 mph - N/A   Clear
5:53 PM 78.1 °F - 59.0 °F 52% 29.62 in 10.0 mi South 4.6 mph - N/A   Clear
6:53 PM 75.9 °F - 59.0 °F 56% 29.64 in 10.0 mi South 3.5 mph - N/A   Partly Cloudy
7:53 PM 73.0 °F - 57.9 °F 59% 29.67 in 10.0 mi SSW 4.6 mph - N/A   Clear
8:53 PM 71.1 °F - 61.0 °F 70% 29.69 in 10.0 mi SSW 5.8 mph - N/A   Clear
9:53 PM 71.1 °F - 62.1 °F 73% 29.70 in 10.0 mi SW 5.8 mph - N/A   Mostly Cloudy
10:53 PM 69.1 °F - 64.0 °F 84% 29.68 in 10.0 mi South 4.6 mph - N/A   Clear
11:53 PM 68.0 °F - 64.9 °F 90% 29.67 in 10.0 mi Calm Calm - N/A   Clear